Flag for India Weather past 2 weeks in Chennai, Tamil Nadu, India

Now
99 °F

Broken clouds.


Feels Like: 104 °F
Forecast: 82 / 93 °F
Wind: 12 mph from Southwest

Location: Madras / Minambakkam

Current Time: Jul 31, 2014 at 6:00:54 PM

Latest Report: Jul 31, 2014 at 4:40 PM


Visibility: 4 mi

Pressure: 29.56 "Hg

Humidity: 37%

Dew point: 68 °F

Location of ChennaiLocation

Historic Weather in Chennai — Graph

°F

Chennai temperature yesterday

Maximum temperature yesterday: 95 °F (at 4:40 PM)
Minimum temperature yesterday: 81 °F (at 3:40 AM)
Average temperature yesterday: 87 °F

Past Weeks' High & Low Weather Summary

 TemperatureHumidityPressure
High99 °F (Jul 17, 3:40 PM)84% (Jul 22, 9:40 PM)29.77 "Hg (Jul 22, 9:40 PM)
Low79 °F (Jul 27, 3:40 AM)37% (Jul 31, 4:40 PM)29.53 "Hg (Jul 22, 3:40 PM)
Average88 °F60%29.66 "Hg
* Reported Jul 16 4:40 PM — Jul 31 4:40 PM, Chennai, Weather by CustomWeather, © 2014

Note: Actual official high and low records may vary slightly from our data, if they occured in-between our weather recording intervals... More about our weather records

Advertising

Chennai weather history for previous 24 hours

 ConditionsComfort  
Time TempWeatherWind HumidityBarometerVisibility
4:40 PM
Jul 31
99 °FBroken clouds.12 mph37%29.56 "Hg4 mi
3:40 PM97 °FBroken clouds.9 mph39%29.56 "Hg4 mi
2:40 PM97 °FBroken clouds.12 mph42%29.59 "Hg4 mi
1:40 PM97 °FBroken clouds.13 mph44%29.62 "Hg4 mi
12:40 PM95 °FBroken clouds.8 mph47%29.65 "Hg4 mi
11:40 AM93 °FBroken clouds.8 mph47%29.68 "Hg4 mi
10:40 AM91 °FBroken clouds.9 mph49%29.68 "Hg4 mi
9:40 AM90 °FBroken clouds.14 mph52%29.71 "Hg4 mi
8:40 AM88 °FBroken clouds.9 mph55%29.71 "Hg4 mi
7:40 AM86 °FBroken clouds.5 mph66%29.71 "Hg4 mi
6:40 AM84 °FBroken clouds.7 mph70%29.68 "Hg4 mi
5:40 AM84 °FPartly cloudy.12 mph70%29.65 "Hg3 mi
4:40 AM84 °FPartly cloudy.9 mph70%29.65 "Hg3 mi
3:40 AM86 °FPartly cloudy.12 mph66%29.65 "Hg3 mi
2:40 AM86 °FPartly cloudy.12 mph70%29.65 "Hg3 mi
1:40 AM84 °FPassing clouds.7 mph74%29.65 "Hg3 mi
11:40 PM
Jul 30
86 °FPartly cloudy.6 mph66%29.68 "Hg3 mi
10:40 PM86 °FPartly cloudy.9 mph70%29.68 "Hg3 mi
9:40 PM86 °FPartly cloudy.12 mph66%29.68 "Hg3 mi
8:40 PM86 °FPartly cloudy.9 mph66%29.65 "Hg3 mi
7:40 PM86 °FPartly cloudy.6 mph59%29.65 "Hg3 mi
6:40 PM91 °FMore clouds than sun.5 mph46%29.62 "Hg3 mi
Weather by CustomWeather, © 2014

See weather overviewHow to use our weather pages